← Previous May 29, 2023 6:01 PM

SXUS53 KWBC 240509
OSOPZ 
:SHEF ENCODED 6-MINUTE NOS MET DATA
:NATIONAL WATER LEVEL OBSERVATION NETWORK (NWLON)
:TA(AIR TEMP DEG F)  SLP(SEA LEVEL PRESSURE INCHES)
:UD(WIND DIRECTION WHOLE DEGREES) US(WIND SPEED MPH)
:TW(WATER TEMP DEG F) UG(WIND GUSTS MPH) WC(CONDUCTIVITY uMHOS/CM)
:XV(VISIBILITY SM)
:-9999 (MISSING VALUES)
:PROVIDED BY DOC/NOAA/NOS/CO-OPS, (301) 713-2540
:[email protected]
.E SDBC1 20230524 Z DH0448/PLIRG/DIN06/29.95/29.95
.E SDBC1 20230524 Z DH0448/TWIRG/DIN06/   65/   65
.E LJAC1 20230524 Z DH0448/TAIRG/DIN06/   60/   60
.E LJAC1 20230524 Z DH0448/PLIRG/DIN06/29.94/29.94
.E LJAC1 20230524 Z DH0448/USIRG/DIN06/    5/    5
.E LJAC1 20230524 Z DH0448/UDIRG/DIN06/  207/  222
.E LJAC1 20230524 Z DH0448/UGIRG/DIN06/    8/    6
.E LJAC1 20230524 Z DH0448/TWIRG/DIN06/   63/   63
.A AGXC1 20230524 Z DH0454/TAIRP    61/UGIRP    10/PLIRP 29.88/UDIRP   162/USIRP     7/TWIRP -9999/WCIRP -9999
.E PRJC1 20230524 Z DH0454/USIRP/DIN06/    5/-9999/    3
.E PRJC1 20230524 Z DH0454/UDIRP/DIN06/  198/-9999/  201
.E PRJC1 20230524 Z DH0454/UGIRP/DIN06/    8/-9999/    5
.A PFDC1 20230524 Z DH0454/TAIRP -9999/UGIRP    10/PLIRP -9999/UDIRP   133/USIRP     7/TWIRP -9999/WCIRP -9999
.E PFXC1 20230524 Z DH0454/TAIRP/DIN06/   60/-9999/   60
.E PFXC1 20230524 Z DH0454/PLIRP/DIN06/29.94/-9999/29.94
.E PFXC1 20230524 Z DH0454/USIRP/DIN06/    8/-9999/    7
.E PFXC1 20230524 Z DH0454/UDIRP/DIN06/  171/-9999/  174
.E PFXC1 20230524 Z DH0454/UGIRP/DIN06/   10/-9999/    9
.A PXAC1 20230524 Z DH0454/TAIRP -9999/UGIRP     9/PLIRP -9999/UDIRP   177/USIRP     5/TWIRP -9999/WCIRP -9999
.A BAXC1 20230524 Z DH0454/TAIRP -9999/UGIRP     9/PLIRP -9999/UDIRP   149/USIRP     6/TWIRP -9999/WCIRP -9999
.A ICAC1 20230524 Z DH0454/TAIRG    60/UGIRG -9999/PLIRG 29.97/UDIRG -9999/USIRG -9999/TWIRG    64/WCIRG -9999
.E NTBC1 20230524 Z DH0454/TAIRG/DIN06/   58/   58
.E NTBC1 20230524 Z DH0454/PLIRG/DIN06/29.95/-9999
.E NTBC1 20230524 Z DH0454/USIRG/DIN06/    2/    2
.E NTBC1 20230524 Z DH0454/UDIRG/DIN06/   44/   15
.E NTBC1 20230524 Z DH0454/UGIRG/DIN06/    3/    3
.E PSLC1 20230524 Z DH0454/TAIRP/DIN06/   55/   55
.E PSLC1 20230524 Z DH0454/PLIRP/DIN06/29.98/29.98
.E PSLC1 20230524 Z DH0454/USIRP/DIN06/   10/    9
.E PSLC1 20230524 Z DH0454/UDIRP/DIN06/  272/  272
.E PSLC1 20230524 Z DH0454/UGIRP/DIN06/   11/   11
.E PSLC1 20230524 Z DH0454/TWIRP/DIN06/   54/   54
.E PSLC1 20230524 Z DH0448/TAIRG/DIN06/   55/   55
.E PSLC1 20230524 Z DH0448/PLIRG/DIN06/29.98/29.98
.E PSLC1 20230524 Z DH0448/USIRG/DIN06/   10/   10
.E PSLC1 20230524 Z DH0448/UDIRG/DIN06/  275/  272
.E PSLC1 20230524 Z DH0448/UGIRG/DIN06/   11/   11
.E PSLC1 20230524 Z DH0448/TWIRG/DIN06/   54/   54
.E MEYC1 20230524 Z DH0454/PLIRG/DIN06/29.93/29.93
.E MEYC1 20230524 Z DH0454/TWIRG/DIN06/   54/   54
.E FTPC1 20230524 Z DH0448/TAIRG/DIN06/   53/   53
.E FTPC1 20230524 Z DH0448/PLIRG/DIN06/29.86/29.86
.E FTPC1 20230524 Z DH0448/USIRG/DIN06/   12/   15
.E FTPC1 20230524 Z DH0448/UDIRG/DIN06/  232/  222
.E FTPC1 20230524 Z DH0448/UGIRG/DIN06/   18/   20
.E FTPC1 20230524 Z DH0448/TWIRG/DIN06/   60/   60
.E PXOC1 20230524 Z DH0454/TAIRP/DIN06/   53/   53
.E PXOC1 20230524 Z DH0454/PLIRP/DIN06/29.85/29.85
.E PXOC1 20230524 Z DH0454/USIRP/DIN06/    3/    5
.E PXOC1 20230524 Z DH0454/UDIRP/DIN06/  234/  221
.E PXOC1 20230524 Z DH0454/UGIRP/DIN06/   13/   11
.E PXOC1 20230524 Z DH0454/TAIRG/DIN06/   53/   53
.E PXOC1 20230524 Z DH0454/PLIRG/DIN06/29.85/29.85
.E PXOC1 20230524 Z DH0454/USIRG/DIN06/    3/    5
.E PXOC1 20230524 Z DH0454/UDIRG/DIN06/  234/  221
.E PXOC1 20230524 Z DH0454/UGIRG/DIN06/   13/   11
.E RTYC1 20230524 Z DH0454/TAIRP/DIN06/   57/   57
.E RTYC1 20230524 Z DH0454/PLIRP/DIN06/29.88/29.88
.E RTYC1 20230524 Z DH0454/USIRP/DIN06/    7/    6
.E RTYC1 20230524 Z DH0454/UDIRP/DIN06/  248/  220
.E RTYC1 20230524 Z DH0454/UGIRP/DIN06/    8/    7
.E RTYC1 20230524 Z DH0454/TWIRP/DIN06/   69/   69
.A AAMC1 20230524 Z DH0454/TAIRP    55/UGIRP    22/PLIRP 29.89/UDIRP   234/USIRP    18/TWIRP -9999/WCIRP -9999
.E AAMC1 20230524 Z DH0448/TAIRG/DIN06/   55/   55
.E AAMC1 20230524 Z DH0448/PLIRG/DIN06/29.89/29.89
.E AAMC1 20230524 Z DH0448/USIRG/DIN06/   17/   18
.E AAMC1 20230524 Z DH0448/UDIRG/DIN06/  234/  234
.E AAMC1 20230524 Z DH0448/UGIRG/DIN06/   21/   22
.E LNDC1 20230524 Z DH0454/TAIRP/DIN06/   54/   54
.E LNDC1 20230524 Z DH0454/PLIRP/DIN06/29.89/29.89
.E LNDC1 20230524 Z DH0454/USIRP/DIN06/   13/   12
.E LNDC1 20230524 Z DH0454/UDIRP/DIN06/  227/  231
.E LNDC1 20230524 Z DH0454/UGIRP/DIN06/   20/   18
.E LNDC1 20230524 Z DH0454/TAIRG/DIN06/   54/   54
.E LNDC1 20230524 Z DH0454/PLIRG/DIN06/29.89/29.89
.E LNDC1 20230524 Z DH0454/USIRG/DIN06/   13/   12
.E LNDC1 20230524 Z DH0454/UDIRG/DIN06/  227/  231
.E LNDC1 20230524 Z DH0454/UGIRG/DIN06/   20/   18
.E OMHC1 20230524 Z DH0454/USIRP/DIN06/   24/   24
.E OMHC1 20230524 Z DH0454/UDIRP/DIN06/  228/  231
.E OMHC1 20230524 Z DH0454/UGIRP/DIN06/   30/   28
.A OMHC1 20230524 Z DH0454/TAIRG -9999/UGIRG    30/PLIRG -9999/UDIRG   228/USIRG    24/TWIRG -9999/WCIRG -9999
.E OKXC1 20230524 Z DH0454/TAIRP/DIN06/   54/   54
.E OKXC1 20230524 Z DH0454/PLIRP/DIN06/29.88/29.88
.E OKXC1 20230524 Z DH0454/USIRP/DIN06/   11/   11
.E OKXC1 20230524 Z DH0454/UDIRP/DIN06/  240/  246
.E OKXC1 20230524 Z DH0454/UGIRP/DIN06/   20/   21
.E OBXC1 20230524 Z DH0454/TAIRG/DIN06/   54/   54
.E OBXC1 20230524 Z DH0454/XVIRG/DIN06/6.20/6.20
.E PPXC1 20230524 Z DH0454/TAIRP/DIN06/   55/   55
.E PPXC1 20230524 Z DH0454/PLIRP/DIN06/29.86/29.86
.E PPXC1 20230524 Z DH0454/USIRP/DIN06/   33/   33
.E PPXC1 20230524 Z DH0454/UDIRP/DIN06/  221/  224
.E PPXC1 20230524 Z DH0454/UGIRP/DIN06/   40/   39
.E RCMC1 20230524 Z DH0454/TAIRP/DIN06/   55/   55
.E RCMC1 20230524 Z DH0454/PLIRP/DIN06/29.86/29.86
.E RCMC1 20230524 Z DH0454/USIRP/DIN06/    6/    6
.E RCMC1 20230524 Z DH0454/UDIRP/DIN06/  196/  191
.E RCMC1 20230524 Z DH0454/UGIRP/DIN06/   12/   12
.A PRYC1 20230524 Z DH0454/TAIRG -9999/UGIRG -9999/PLIRG 29.88/UDIRG -9999/USIRG -9999/TWIRG -9999/WCIRG -9999
.A MZXC1 20230524 Z DH0454/TAIRG    55/UGIRG    18/PLIRG 29.85/UDIRG   248/USIRG    14/TWIRG    66/WCIRG -9999
.A PSBC1 20230524 Z DH0454/TAIRG    59/UGIRG    22/PLIRG 29.81/UDIRG   298/USIRG    17/TWIRG -9999/WCIRG -9999
.E UPBC1 20230524 Z DH0454/USIRP/DIN06/   18/   16
.E UPBC1 20230524 Z DH0454/UDIRP/DIN06/  272/  269
.E UPBC1 20230524 Z DH0454/UGIRP/DIN06/   22/   22
.E DPXC1 20230524 Z DH0454/TAIRP/DIN06/   55/   55
.E DPXC1 20230524 Z DH0454/PLIRP/DIN06/29.84/29.85
.E DPXC1 20230524 Z DH0454/USIRP/DIN06/   18/   18
.E DPXC1 20230524 Z DH0454/UDIRP/DIN06/  216/  224
.E DPXC1 20230524 Z DH0454/UGIRP/DIN06/   23/   23
.E PCOC1 20230524 Z DH0454/TAIRP/DIN06/   56/   56
.E PCOC1 20230524 Z DH0454/PLIRP/DIN06/29.83/29.83
.E PCOC1 20230524 Z DH0454/USIRP/DIN06/   15/   15
.E PCOC1 20230524 Z DH0454/UDIRP/DIN06/  241/  245
.E PCOC1 20230524 Z DH0454/UGIRP/DIN06/   19/   19
.E PCOC1 20230524 Z DH0454/TWIRP/DIN06/   66/   66
.A PCOC1 20230524 Z DH0454/TAIRG    56/UGIRG    19/PLIRG 29.83/UDIRG   241/USIRG    15/TWIRG    66/WCIRG -9999
.E ANVC1 20230524 Z DH0448/TAIRG/DIN06/   52/   52
.E ANVC1 20230524 Z DH0448/PLIRG/DIN06/29.88/29.88
.E ANVC1 20230524 Z DH0448/USIRG/DIN06/    7/    5
.E ANVC1 20230524 Z DH0448/UDIRG/DIN06/  307/  310
.E ANVC1 20230524 Z DH0448/UGIRG/DIN06/   13/   12
.E ANVC1 20230524 Z DH0448/TWIRG/DIN06/   50/   50
.A HBYC1 20230524 Z DH0454/TAIRG -9999/UGIRG -9999/PLIRG 29.98/UDIRG -9999/USIRG -9999/TWIRG    52/WCIRG -9999
.E NJLC1 20230524 Z DH0454/TAIRP/DIN06/   51/   51
.E NJLC1 20230524 Z DH0454/USIRP/DIN06/   11/   11
.E NJLC1 20230524 Z DH0454/UDIRP/DIN06/  332/  335
.E NJLC1 20230524 Z DH0454/UGIRP/DIN06/   14/   13
.E CECC1 20230524 Z DH0448/TAIRG/DIN06/   52/   51
.E CECC1 20230524 Z DH0448/PLIRG/DIN06/29.93/29.93
.E CECC1 20230524 Z DH0448/USIRG/DIN06/    9/    9
.E CECC1 20230524 Z DH0448/UDIRG/DIN06/  355/  358
.E CECC1 20230524 Z DH0448/UGIRG/DIN06/   11/   11
.E CECC1 20230524 Z DH0448/TWIRG/DIN06/   52/   52
.A PORO3 20230524 Z DH0454/TAIRG    52/UGIRG    23/PLIRG 30.08/UDIRG    27/USIRG    17/TWIRG -9999/WCIRG -9999
.E CHAO3 20230524 Z DH0448/PLIRG/DIN06/30.11/30.12
.E SBEO3 20230524 Z DH0448/PLIRP/DIN06/ 0.01/ 0.01
.E TLBO3 20230524 Z DH0448/PLIRG/DIN06/30.13/30.13
.E TLBO3 20230524 Z DH0448/TWIRG/DIN06/   53/   53
.A ASTO3 20230524 Z DH0454/TAIRG    54/UGIRG     8/PLIRG 30.12/UDIRG   310/USIRG     6/TWIRG    61/WCIRG -9999
.E LOPW1 20230524 Z DH0454/PLIRP/DIN06/30.09/30.09
.E LOPW1 20230524 Z DH0454/TWIRP/DIN06/   57/   57
.E LOPW1 20230524 Z DH0448/PLIRG/DIN06/30.09/30.09
.E LOPW1 20230524 Z DH0448/TWIRG/DIN06/   57/   57
.E TOKW1 20230524 Z DH0448/TAIRG/DIN06/   52/   51
.E TOKW1 20230524 Z DH0448/PLIRG/DIN06/30.16/30.16
.E TOKW1 20230524 Z DH0448/USIRG/DIN06/    4/    4
.E TOKW1 20230524 Z DH0448/UDIRG/DIN06/  286/  281
.E TOKW1 20230524 Z DH0448/UGIRG/DIN06/    6/    5
.E TOKW1 20230524 Z DH0448/TWIRG/DIN06/   58/   58
.E WPTW1 20230524 Z DH0454/TAIRP/DIN06/   52/   52
.E WPTW1 20230524 Z DH0454/USIRP/DIN06/    6/    7
.E WPTW1 20230524 Z DH0454/UDIRP/DIN06/  318/  316
.E WPTW1 20230524 Z DH0454/UGIRP/DIN06/    8/    8
.E WPTW1 20230524 Z DH0448/TAIRG/DIN06/   52/   52
.E WPTW1 20230524 Z DH0448/PLIRG/DIN06/30.13/30.13
.E WPTW1 20230524 Z DH0448/USIRG/DIN06/    8/    6
.E WPTW1 20230524 Z DH0448/UDIRG/DIN06/  321/  318
.E WPTW1 20230524 Z DH0448/UGIRG/DIN06/    9/    8
.E WPTW1 20230524 Z DH0448/TWIRG/DIN06/   52/   52
.E LAPW1 20230524 Z DH0454/TAIRP/DIN06/   51/   50
.E LAPW1 20230524 Z DH0454/USIRP/DIN06/    1/    0
.E LAPW1 20230524 Z DH0454/UDIRP/DIN06/   26/  353
.E LAPW1 20230524 Z DH0454/UGIRP/DIN06/    3/    1
.E LAPW1 20230524 Z DH0454/PLIRG/DIN06/30.11/30.11
.E LAPW1 20230524 Z DH0454/TWIRG/DIN06/   51/   51
.E NEAW1 20230524 Z DH0454/PLIRP/DIN06/30.12/30.12
.E NEAW1 20230524 Z DH0454/TWIRP/DIN06/   51/   51
.E PTAW1 20230524 Z DH0448/TAIRG/DIN06/   53/   52
.E PTAW1 20230524 Z DH0448/PLIRG/DIN06/30.14/30.14
.E PTAW1 20230524 Z DH0448/TWIRG/DIN06/   50/   50
.E PTWW1 20230524 Z DH0448/TAIRG/DIN06/   53/   53
.E PTWW1 20230524 Z DH0448/PLIRG/DIN06/30.12/30.12
.E PTWW1 20230524 Z DH0448/USIRG/DIN06/    7/    6
.E PTWW1 20230524 Z DH0448/UDIRG/DIN06/  272/  279
.E PTWW1 20230524 Z DH0448/UGIRG/DIN06/   11/   10
.E BMTW1 20230524 Z DH0448/TAIRG/DIN06/   58/   58
.E BMTW1 20230524 Z DH0448/PLIRG/DIN06/30.10/30.11
.E BMTW1 20230524 Z DH0448/USIRG/DIN06/    1/    2
.E BMTW1 20230524 Z DH0448/UDIRG/DIN06/   43/  187
.E BMTW1 20230524 Z DH0448/UGIRG/DIN06/    1/    4
.E TCMW1 20230524 Z DH0454/TAIRP/DIN06/   57/   58
.E TCMW1 20230524 Z DH0454/USIRP/DIN06/    7/    6
.E TCMW1 20230524 Z DH0454/UDIRP/DIN06/  305/  306
.E TCMW1 20230524 Z DH0454/UGIRP/DIN06/    7/    7
.E TCNW1 20230524 Z DH0448/PLIRG/DIN06/30.11/30.11
.E TCNW1 20230524 Z DH0448/TWIRG/DIN06/   51/   51
.E CPMW1 20230524 Z DH0448/TAIRG/DIN06/   54/   54
.E CPMW1 20230524 Z DH0448/USIRG/DIN06/    1/    2
.E CPMW1 20230524 Z DH0448/UDIRG/DIN06/  319/  315
.E CPMW1 20230524 Z DH0448/UGIRG/DIN06/    2/    3
.A CHYW1 20230524 Z DH0454/TAIRG -9999/UGIRG -9999/PLIRG 30.10/UDIRG -9999/USIRG -9999/TWIRG -9999/WCIRG -9999
.E CPNW1 20230524 Z DH0448/TAIRG/DIN06/   54/   53
.E CPNW1 20230524 Z DH0448/USIRG/DIN06/    2/    2
.E CPNW1 20230524 Z DH0448/UDIRG/DIN06/  304/  329
.E CPNW1 20230524 Z DH0448/UGIRG/DIN06/    3/    2
.E FRDW1 20230524 Z DH0454/TAIRP/DIN06/   53/   52
.E FRDW1 20230524 Z DH0454/USIRP/DIN06/    0/    0
.E FRDW1 20230524 Z DH0454/UDIRP/DIN06/  189/   52
.E FRDW1 20230524 Z DH0454/UGIRP/DIN06/    1/    0
.A FRDW1 20230524 Z DH0454/TAIRG -9999/UGIRG -9999/PLIRG 30.12/UDIRG -9999/USIRG -9999/TWIRG    49/WCIRG -9999
.E MGIP4 20230524 Z DH0454/TAIRP/DIN06/   78/   78
.E MGIP4 20230524 Z DH0454/PLIRP/DIN06/29.91/29.91
.E MGIP4 20230524 Z DH0454/USIRP/DIN06/    2/    4
.E MGIP4 20230524 Z DH0454/UDIRP/DIN06/   43/   66
.E MGIP4 20230524 Z DH0454/UGIRP/DIN06/    6/    7
.E MGIP4 20230524 Z DH0454/TWIRP/DIN06/   85/   85
.E MGIP4 20230524 Z DH0448/TAIRG/DIN06/   79/   78
.E MGIP4 20230524 Z DH0448/PLIRG/DIN06/29.92/29.91
.E MGIP4 20230524 Z DH0448/USIRG/DIN06/    1/    2
.E MGIP4 20230524 Z DH0448/UDIRG/DIN06/   51/   43
.E MGIP4 20230524 Z DH0448/UGIRG/DIN06/    7/    6
.E MGIP4 20230524 Z DH0448/TWIRG/DIN06/   85/   85